Home   Weather   60°27'N, 26°02'E   Past weeks
Flag for Finland

Past Weather in 60°27'N, 26°02'E, Finland — Yesterday and Last 2 Weeks

Now
34 °F

Light rain. Partly sunny.


Feels Like: 24 °F
Forecast: 37 / 31 °F
Wind: 14 mph from Southwest

Location: Helsinki-Vantaa

Current Time: Mar 20, 2019 at 6:06:00 pm

Latest Report: Mar 20, 2019 at 5:20 pm


Visibility: 5 mi

Pressure: 29.89 "Hg

Humidity: 93%

Dew Point: 32 °F

Location of 60°27'N, 26°02'ELocation

Past Weather in 60°27'N, 26°02'E — Graph

°F

60°27'N, 26°02'E Temperature Yesterday

Maximum temperature yesterday: 39 °F (at 12:20 pm)
Minimum temperature yesterday: 34 °F (at 9:50 pm)
Average temperature yesterday: 36 °F

High & Low Weather Summary for the Past Weeks

 TemperatureHumidityPressure
High41 °F (Mar 8, 4:20 pm)100% (Mar 7, 2:50 am)30.07 "Hg (Mar 7, 2:50 am)
Low3 °F (Mar 6, 7:50 am)32% (Mar 6, 11:50 am)28.88 "Hg (Mar 9, 1:20 am)
Average30 °F88%29.46 "Hg
* Reported Mar 5 4:20 pm — Mar 20 4:50 pm, 60°27'N, 26°02'E. Weather by CustomWeather, © 2019

Note: Actual official high and low records may vary slightly from our data, if they occured in-between our weather recording intervals... More about our weather records

Advertising

60°27'N, 26°02'E Weather History for the Previous 24 Hours

Scroll right to see more
 ConditionsComfort  
Time TempWeatherWind HumidityBarometerVisibility
4:50 pm
Wed, Mar 20
34 °FLight rain. Partly sunny.16 mph93%29.89 "Hg1 mi
4:20 pm34 °FDrizzle. Fog.20 mph100%29.89 "Hg1 mi
3:50 pm34 °FLight rain. Partly sunny.18 mph93%29.89 "Hg3 mi
3:20 pm34 °FLight snow. Broken clouds.20 mph93%29.89 "Hg1 mi
2:50 pm36 °FLight rain. Partly sunny.23 mph81%29.92 "Hg3 mi
2:20 pm37 °FLight snow. Partly sunny.24 mph70%29.92 "HgN/A
1:50 pm37 °FSunny.20 mph70%29.95 "Hg10 mi
1:20 pm37 °FSunny.21 mph70%29.95 "Hg10 mi
12:50 pm37 °FOvercast.17 mph75%29.98 "HgN/A
12:20 pm37 °FOvercast.14 mph75%29.98 "HgN/A
11:50 am36 °FPartly sunny.13 mph81%30.01 "HgN/A
11:20 am36 °FBroken clouds.16 mph81%30.01 "HgN/A
10:50 am36 °FPartly sunny.16 mph81%30.04 "HgN/A
10:20 am34 °FPartly sunny.14 mph75%30.04 "HgN/A
9:50 am32 °FPartly sunny.12 mph80%30.04 "HgN/A
9:20 am32 °FPartly sunny.9 mph80%30.04 "HgN/A
8:50 am30 °FBroken clouds.10 mph86%30.07 "HgN/A
8:20 am30 °FBroken clouds.14 mph86%30.07 "HgN/A
7:50 am30 °FPartly sunny.12 mph86%30.07 "HgN/A
7:20 am30 °FPartly sunny.12 mph93%30.07 "HgN/A
6:50 am30 °FLight snow. Broken clouds.8 mph100%30.07 "Hg1 mi
6:20 am32 °FLight snow. Partly cloudy.8 mph93%30.04 "HgN/A
5:50 am32 °FLight snow. Passing clouds.6 mph93%30.04 "Hg3 mi
5:20 am32 °FPassing clouds.6 mph93%30.04 "HgN/A
4:50 am32 °FPartly cloudy.8 mph93%30.04 "HgN/A
4:20 am32 °FPassing clouds.9 mph93%30.04 "HgN/A
3:50 am32 °FPassing clouds.8 mph93%30.04 "HgN/A
3:20 am32 °FPassing clouds.10 mph93%30.04 "HgN/A
2:50 am32 °FPassing clouds.8 mph93%30.04 "HgN/A
2:20 am32 °FPassing clouds.10 mph93%30.04 "HgN/A
1:50 am34 °FPassing clouds.9 mph93%30.04 "HgN/A
1:20 am34 °FPassing clouds.9 mph93%30.04 "HgN/A
12:50 am34 °FPassing clouds.10 mph93%30.01 "HgN/A
12:20 am34 °FPassing clouds.8 mph93%30.01 "HgN/A
11:50 pm
Tue, Mar 19
34 °FPassing clouds.8 mph93%30.01 "HgN/A
11:20 pm34 °FPassing clouds.7 mph93%30.01 "HgN/A
10:50 pm34 °FPassing clouds.9 mph93%29.98 "HgN/A
10:20 pm34 °FMostly cloudy.8 mph100%29.98 "HgN/A
9:50 pm34 °FMostly cloudy.7 mph100%29.98 "HgN/A
9:20 pm36 °FPassing clouds.10 mph93%29.95 "HgN/A
8:50 pm36 °FPassing clouds.10 mph93%29.95 "HgN/A
8:20 pm36 °FPassing clouds.8 mph93%29.95 "Hg5 mi
7:50 pm36 °FPassing clouds.9 mph100%29.92 "Hg5 mi
7:20 pm36 °FLight rain. Passing clouds.7 mph100%29.89 "HgN/A
6:50 pm36 °FPartly cloudy.8 mph100%29.89 "HgN/A
6:20 pm37 °FBroken clouds.8 mph93%29.89 "HgN/A
Weather by CustomWeather, © 2019

See weather overview